Location: Gammelsbach
(49.5261°N, 8.9630°E)
Time: 20:40:27
(UTC+00:00)

Cosmos 1271 Rocket - Pass Details

Date: 17 June 2025
Orbit: 443 x 474 km, 81.2° (Epoch: 16 July)

Event Time Altitude Azimuth Distance (km) Brightness Sun altitude
Exits shadow 22:13:02 30° 140° (SE) 888 3.4 -15.3°
Maximum altitude 22:14:13 40° 96° (E) 721 3.2 -15.4°
Drops below altitude 10° 22:17:37 10° 26° (NNE) 1,657 6.0 -15.5°
Sets 22:19:48 0° 19° (NNE) 2,537 7.2 -15.6°
